Temp
19 19 19 19 19 19 19 19 19 19 19 19 19 19 19 19 19 19 19 20 20 20 20 20 20 20 20 20 20 20 20 20 20 20 20 21 20 20 20 21 21 21
19 19 19 19 19 19 19 19 19 19 19 19 19 19 19 19 19 19 20 20 20 20 20 21 20 21 20 20 20 21 20 21 20 20 20 21 20 20 20 21 21 21
19 19 19 19 20 20 19 19 19 20 20 20 19 19 19 19 20 20 20 20 20 20 20 21 20 21 21 20 21 20 20 21 20 20 20 21 21 20 20 21 21 21
19 19 19 19 20 20 20 20 20 20 20 20 19 19 20 20 19 20 21 20 20 20 20 21 20 20 20 21 21 20 20 20 20 20 20 21 21 21 20 20 21 21
19 19 20 20 20 20 20 20 20 20 20 20 20 20 20 20 19 20 20 20 21 20 20 21 20 20 21 21 21 20 20 20 20 20 21 21 21 21 20 20 20 20
20 20 19 20 20 20 20 20 20 20 20 20 20 20 20 20 20 19 20 20 20 20 20 20 20 20 20 21 21 20 20 20 20 20 21 21 21 20 20 20 20 20
20 20 20 20 20 20 20 20 20 20 20 20 20 20 20 20 20 20 20 20 20 20 20 20 20 20 20 20 21 21 21 20 20 21 21 21 20 21 20 20 20 21
20 20 20 20 20 20 20 20 20 20 20 20 20 20 20 20 20 20 20 20 20 20 20 20 20 20 20 20 20 21 21 20 20 21 21 21 21 21 21 20 20 21
20 20 20 20 20 21 20 20 20 20 20 20 20 20 20 20 20 20 20 20 20 20 20 20 20 20 20 19 20 20 21 20 20 20 20 20 20 21 20 20 20 20
20 20 20 20 21 21 21 21 21 21 20 20 21 21 21 20 20 20 20 20 20 20 20 20 20 20 20 20 20 20 21 21 20 20 20 20 20 20 20 20 20 20
21 21 21 21 21 21 21 21 21 21 21 21 21 21 21 21 20 20 20 20 20 20 20 20 20 20 20 20 20 20 20 20 20 20 20 20 20 20 20 20 21 20
21 21 21 21 21 22 22 22 21 21 21 21 21 21 21 21 21 20 20 20 20 20 20 20 21 20 20 20 20 20 20 20 20 20 20 20 20 21 21 21 21 21
20 21 21 21 21 22 22 22 22 22 21 21 21 21 21 21 21 21 21 20 20 20 20 20 21 20 21 21 20 20 20 20 20 21 20 20 21 21 21 21 21 21
21 20 21 21 21 21 22 22 22 22 22 21 21 21 21 21 21 21 21 21 20 20 20 20 21 20 20 21 21 20 20 20 20 21 21 21 21 21 21 22 22 22
21 20 20 21 21 21 21 21 21 21 21 21 21 21 21 22 22 21 21 21 21 21 20 20 21 20 20 20 20 21 21 21 21 21 21 21 21 21 22 22 22 22
21 21 21 21 21 21 20 21 21 21 21 21 21 21 21 21 21 22 22 21 21 21 21 21 21 21 21 21 20 20 20 20 21 21 21 21 21 21 21 22 22 22
21 21 21 21 21 21 21 21 21 20 20 20 20 20 20 21 21 21 21 21 22 21 21 21 21 21 21 21 21 21 21 20 20 21 21 21 21 21 21 21 22 22
20 21 21 21 21 21 21 21 21 20 20 20 20 20 20 20 20 20 21 21 21 22 22 22 22 21 21 21 21 21 21 21 21 20 20 21 21 21 21 21 21 22
19 19 19 19 20 20 20 20 20 20 20 20 20 20 20 20 20 20 20 20 21 21 21 22 22 21 21 21 21 21 21 21 21 21 21 21 21 21 21 21 21 21
18 18 18 19 20 20 20 20 20 20 20 20 20 20 20 20 19 19 19 19 20 21 21 21 21 21 21 21 20 21 21 21 21 21 21 20 21 21 21 21 21 21
18 18 18 19 20 20 20 20 20 20 20 19 19 20 20 20 20 19 19 19 19 19 19 19 20 20 20 20 20 21 21 21 21 21 21 20 20 21 21 21 21 21
18 18 19 19 19 19 19 19 19 19 19 19 19 19 19 19 19 19 19 19 19 19 19 19 19 20 20 20 20 20 20 20 20 20 21 20 20 20 20 20 20 20
18 18 18 18 18 18 18 18 18 18 18 18 18 18 18 18 18 18 18 19 19 19 19 19 19 20 20 19 20 20 20 20 20 20 20 20 20 20 20 20 20 20
17 17 17 17 17 17 18 17 17 17 17 18 18 18 18 18 18 18 18 18 18 18 18 19 19 19 19 19 19 19 19 19 19 19 19 19 19 19 20 20 20 20
16 16 16 17 17 17 17 17 17 17 17 17 17 17 17 17 17 17 18 18 17 17 18 18 19 19 19 18 18 18 18 19 19 19 19 18 18 18 19 19 19 20
15 16 16 16 16 16 16 16 16 16 16 17 17 16 16 16 16 17 17 17 17 17 17 18 18 18 18 18 18 18 18 18 18 18 18 18 18 18 18 19 19 19
Height
1596 1597 1598 1599 1601 1602 1602 1603 1604 1605 1605 1606 1606 1607 1608 1609 1609 1610 1611 1611 1612 1612 1613 1613 1614 1615 1615 1616 1616 1617 1617 1617 1618 1618 1618 1618 1619 1619 1620 1620 1620 1620
1595 1597 1598 1599 1600 1600 1602 1603 1604 1604 1604 1605 1606 1606 1607 1608 1608 1609 1610 1611 1611 1612 1612 1613 1614 1614 1615 1615 1616 1616 1617 1617 1617 1618 1618 1618 1618 1619 1619 1620 1620 1620
1595 1596 1597 1598 1598 1599 1601 1602 1603 1603 1604 1605 1605 1606 1607 1607 1608 1608 1609 1610 1611 1611 1612 1612 1613 1614 1614 1615 1615 1616 1616 1616 1617 1618 1617 1617 1618 1618 1619 1619 1620 1620
1594 1595 1596 1598 1598 1599 1600 1601 1602 1602 1603 1604 1605 1606 1606 1607 1607 1607 1608 1609 1610 1610 1611 1612 1612 1613 1614 1614 1615 1615 1616 1616 1616 1616 1616 1617 1617 1617 1618 1619 1619 1619
1593 1594 1595 1597 1597 1598 1600 1601 1601 1602 1602 1603 1604 1605 1606 1606 1607 1607 1608 1608 1609 1610 1610 1611 1611 1612 1613 1613 1614 1615 1615 1616 1616 1616 1616 1616 1616 1616 1617 1618 1617 1618
1591 1593 1594 1595 1596 1598 1599 1600 1601 1602 1602 1603 1603 1604 1605 1605 1606 1607 1608 1608 1609 1609 1610 1611 1611 1611 1612 1612 1613 1614 1614 1615 1616 1615 1615 1615 1616 1616 1616 1617 1616 1616
1591 1592 1593 1595 1596 1597 1598 1599 1600 1601 1602 1603 1603 1603 1604 1605 1606 1607 1607 1608 1609 1609 1610 1610 1610 1611 1611 1612 1612 1613 1613 1614 1614 1614 1614 1615 1615 1615 1615 1616 1615 1615
1590 1591 1592 1594 1595 1596 1597 1598 1599 1600 1601 1602 1602 1603 1603 1604 1605 1606 1607 1607 1608 1609 1610 1610 1610 1610 1611 1611 1612 1612 1612 1613 1614 1613 1614 1614 1614 1614 1614 1615 1615 1614
1589 1590 1591 1593 1594 1595 1596 1597 1598 1599 1600 1601 1602 1602 1603 1604 1605 1605 1606 1606 1607 1608 1608 1609 1609 1609 1610 1611 1611 1611 1611 1612 1613 1613 1613 1613 1613 1614 1614 1614 1614 1614
1588 1589 1590 1591 1593 1594 1595 1596 1598 1598 1599 1599 1600 1601 1601 1602 1603 1604 1604 1604 1606 1606 1606 1607 1608 1608 1609 1610 1610 1610 1610 1611 1611 1612 1612 1612 1613 1613 1613 1614 1614 1614
1586 1588 1589 1590 1592 1593 1594 1595 1596 1597 1597 1598 1599 1600 1600 1601 1602 1603 1603 1603 1604 1605 1605 1606 1606 1607 1608 1608 1609 1610 1610 1610 1610 1611 1611 1611 1611 1612 1612 1612 1613 1613
1585 1586 1588 1589 1590 1592 1593 1594 1595 1596 1596 1597 1598 1599 1599 1600 1601 1601 1602 1602 1602 1603 1604 1604 1605 1605 1606 1607 1608 1609 1609 1609 1610 1610 1610 1610 1611 1611 1611 1611 1612 1612
1583 1585 1587 1588 1589 1590 1592 1593 1593 1594 1595 1596 1597 1597 1598 1599 1599 1600 1600 1600 1601 1602 1602 1603 1603 1603 1604 1605 1606 1607 1607 1608 1609 1609 1609 1610 1610 1610 1611 1611 1611 1611
1582 1584 1585 1587 1588 1589 1590 1591 1592 1593 1593 1594 1595 1596 1596 1597 1598 1598 1599 1599 1599 1600 1601 1601 1601 1601 1602 1603 1603 1605 1606 1607 1607 1608 1608 1609 1609 1609 1610 1610 1610 1610
1581 1582 1583 1584 1585 1586 1587 1589 1590 1591 1592 1592 1593 1594 1595 1596 1596 1597 1597 1598 1598 1598 1599 1600 1600 1600 1601 1601 1602 1603 1604 1605 1606 1606 1607 1607 1608 1608 1608 1609 1609 1609
1579 1580 1582 1582 1583 1584 1585 1586 1587 1588 1589 1590 1591 1591 1592 1593 1594 1595 1596 1596 1597 1597 1598 1598 1598 1599 1599 1600 1601 1601 1602 1603 1604 1605 1605 1606 1606 1606 1607 1607 1608 1608
1577 1578 1580 1581 1582 1582 1583 1584 1585 1585 1586 1588 1588 1589 1590 1591 1592 1593 1594 1595 1595 1596 1596 1597 1597 1597 1598 1598 1598 1599 1600 1601 1602 1603 1603 1604 1604 1605 1605 1605 1606 1607
1575 1576 1578 1579 1579 1580 1581 1582 1582 1583 1584 1585 1586 1587 1588 1589 1590 1591 1591 1593 1594 1594 1595 1596 1595 1595 1596 1597 1597 1597 1598 1599 1600 1601 1602 1602 1603 1603 1603 1604 1604 1605
1573 1574 1575 1576 1577 1578 1579 1579 1580 1581 1582 1582 1583 1584 1586 1586 1588 1589 1589 1591 1592 1593 1595 1595 1593 1593 1594 1595 1595 1595 1596 1597 1598 1598 1599 1600 1601 1601 1602 1602 1603 1603
1571 1572 1573 1573 1574 1575 1576 1577 1578 1578 1579 1580 1581 1582 1583 1584 1585 1587 1588 1589 1590 1592 1594 1593 1591 1591 1592 1592 1593 1594 1594 1595 1596 1596 1597 1598 1599 1599 1600 1600 1601 1601
1569 1570 1571 1571 1571 1572 1573 1574 1575 1576 1577 1578 1579 1580 1581 1582 1583 1584 1586 1588 1589 1590 1590 1589 1588 1590 1590 1591 1592 1592 1592 1593 1593 1594 1595 1596 1596 1597 1598 1598 1599 1599
1567 1568 1568 1568 1568 1569 1570 1571 1572 1574 1575 1575 1576 1576 1578 1579 1581 1583 1584 1586 1586 1587 1587 1587 1588 1588 1589 1590 1590 1590 1591 1591 1591 1592 1592 1593 1594 1595 1596 1595 1595 1594
1564 1565 1565 1565 1566 1567 1568 1570 1571 1571 1572 1572 1573 1573 1574 1576 1578 1579 1581 1582 1582 1583 1585 1585 1585 1585 1586 1588 1588 1589 1589 1589 1590 1590 1590 1591 1592 1592 1592 1591 1591 1592
1562 1563 1564 1564 1565 1566 1568 1568 1569 1570 1570 1570 1570 1571 1572 1574 1575 1575 1576 1578 1578 1579 1581 1582 1582 1582 1584 1585 1586 1586 1587 1587 1588 1588 1588 1589 1590 1589 1588 1589 1589 1590
1562 1563 1563 1564 1566 1567 1567 1568 1568 1568 1568 1568 1569 1569 1570 1571 1571 1572 1573 1574 1575 1577 1579 1580 1580 1580 1581 1582 1583 1584 1584 1585 1585 1586 1586 1587 1588 1587 1586 1587 1587 1587
1563 1563 1563 1564 1565 1566 1567 1567 1567 1567 1567 1568 1569 1570 1570 1571 1570 1571 1572 1573 1574 1576 1578 1579 1578 1578 1578 1580 1581 1581 1582 1583 1583 1584 1584 1585 1585 1585 1585 1586 1586 1585
Wind_Speed
13 11 11 10 9 9 9 8 8 8 8 8 8 8 9 9 10 10 10 9 9 9 8 8 8 8 8 8 8 7 5 6 5 3 3 3 2 2 3 3 3 4
13 12 11 10 11 12 10 9 8 9 9 9 8 8 9 10 11 11 10 10 9 8 8 8 8 8 8 8 8 7 6 6 5 3 4 4 3 2 3 3 3 4
13 12 12 11 11 11 10 9 10 9 9 9 9 8 9 9 10 11 11 10 10 8 8 8 8 8 8 8 8 7 6 6 5 5 7 6 4 3 3 3 3 4
14 13 12 11 10 9 9 9 9 9 9 10 9 9 9 9 9 10 10 10 11 10 9 9 8 8 9 8 8 7 7 7 7 7 7 6 5 5 4 4 4 4
15 14 13 12 10 9 9 9 9 9 9 10 9 10 10 10 9 9 9 10 10 10 9 9 9 9 9 8 8 7 7 6 6 7 7 5 6 5 4 5 5 4
16 15 14 13 11 10 10 10 10 9 9 9 9 9 10 10 9 10 9 9 9 9 8 9 8 8 8 8 8 8 7 6 7 9 7 6 6 6 5 6 7 6
15 16 15 14 12 13 12 11 11 10 10 9 9 9 10 10 10 10 10 9 9 9 9 8 8 8 8 8 8 8 8 8 8 8 7 6 6 6 6 7 7 7
15 15 16 15 14 14 14 13 12 12 12 11 10 10 10 10 10 10 10 10 10 9 9 9 10 9 9 8 7 8 7 7 8 8 6 6 7 7 6 6 7 7
16 16 16 16 16 15 15 14 13 13 13 13 12 11 11 11 11 11 11 11 10 11 11 11 11 10 9 10 9 9 8 8 8 8 7 7 7 7 6 6 7 7
16 16 16 16 17 16 15 15 14 14 14 13 13 12 12 12 11 11 12 12 11 12 12 11 11 10 9 10 11 10 9 8 9 9 9 8 7 7 7 7 7 7
17 17 16 16 17 16 16 15 15 14 14 14 14 13 12 12 12 12 13 12 12 12 12 11 11 10 10 11 10 10 10 9 9 9 9 9 9 8 8 9 9 9
18 17 17 17 16 16 16 16 16 15 14 14 14 13 13 12 13 13 13 13 12 12 12 11 12 11 11 12 11 11 10 10 10 10 9 10 9 9 9 9 9 9
18 17 17 17 16 16 15 15 16 16 15 14 14 14 14 14 13 13 13 13 13 13 13 13 13 12 12 12 12 11 11 10 11 11 10 10 10 10 10 10 10 10
18 17 17 16 16 16 16 15 15 16 16 15 15 14 15 15 15 14 14 14 13 13 13 13 13 13 13 13 13 12 12 11 11 11 11 11 11 11 11 11 11 11
18 18 19 19 18 18 18 16 15 15 16 16 16 16 15 15 15 15 15 15 14 14 14 14 14 13 13 14 13 12 12 12 12 12 12 12 12 12 12 12 12 12
19 19 19 20 20 19 19 18 17 16 16 16 17 17 17 16 16 16 16 16 15 15 15 15 14 14 15 15 14 13 12 11 12 12 12 13 13 13 13 13 13 13
20 21 20 20 20 19 19 19 19 18 18 18 18 17 17 18 18 17 18 17 16 16 15 15 15 16 17 17 17 16 14 13 12 12 12 13 14 14 15 14 14 14
21 21 20 19 19 20 20 20 20 20 19 19 19 17 17 19 19 19 20 19 17 17 16 15 17 19 19 19 20 20 18 17 16 14 13 13 14 14 15 15 15 15
21 20 19 18 18 18 18 19 20 20 20 20 20 19 19 19 19 19 20 20 19 18 16 16 19 21 21 22 23 22 21 19 18 17 16 15 15 15 15 15 16 16
21 20 18 19 21 20 19 19 20 21 21 21 22 22 22 21 19 18 17 17 19 18 16 17 20 22 21 22 24 23 22 19 18 19 18 16 15 16 16 16 16 17
18 18 19 21 23 23 21 21 22 22 21 21 22 23 23 23 22 20 17 15 15 16 16 19 21 22 22 23 23 22 21 19 18 19 19 18 16 15 15 16 16 17
16 16 18 20 21 19 18 18 18 19 19 21 21 22 22 22 22 22 20 18 16 15 15 18 20 21 23 23 22 22 20 18 18 18 19 19 18 16 15 16 18 19
16 16 17 19 18 16 15 15 15 15 16 17 18 18 18 18 18 20 20 20 20 18 16 18 20 22 24 23 23 23 21 19 19 18 18 18 18 19 19 20 20 21
13 14 15 16 14 13 13 13 14 14 13 14 15 15 16 16 17 18 18 18 20 18 16 18 21 22 23 23 23 22 21 20 19 18 17 15 15 18 21 21 22 21
9 9 9 9 9 10 11 11 12 12 11 11 12 14 14 14 15 16 16 16 17 16 16 18 20 20 20 20 20 20 19 18 17 16 16 13 11 15 19 19 19 20
9 10 9 8 8 9 9 8 7 7 6 5 5 6 7 7 7 10 12 12 11 12 15 17 17 16 16 16 15 14 13 12 11 12 13 12 11 13 17 17 17 18
Wind_Direction
185 183 180 177 175 177 180 180 178 179 177 179 185 181 179 181 183 189 192 192 193 195 199 201 201 200 194 196 197 198 200 183 187 235 236 205 211 251 267 261 264 271
183 184 183 184 188 185 180 181 178 180 179 176 180 183 184 189 190 192 193 190 191 195 199 201 202 200 194 202 207 202 212 201 182 234 258 229 220 245 267 271 275 276
186 189 188 188 196 188 178 185 184 182 182 176 180 184 184 189 190 192 193 187 185 193 200 199 199 203 200 206 209 203 219 221 196 221 241 227 222 238 260 272 273 279
190 193 193 192 200 191 180 190 189 182 183 182 184 180 177 191 195 194 196 189 185 191 196 195 196 203 207 212 213 209 224 232 220 227 234 225 227 230 238 259 257 263
193 194 196 195 198 193 186 191 192 190 189 185 183 180 180 192 195 193 198 195 191 194 194 195 200 204 209 214 215 214 226 239 247 253 245 229 235 233 232 254 252 249
196 195 195 195 195 194 192 191 193 194 196 190 186 187 189 191 188 191 200 196 192 195 193 197 205 205 210 216 214 215 217 219 243 262 259 240 241 239 232 245 250 248
197 197 195 194 195 197 195 193 193 191 193 195 193 194 194 193 190 191 198 194 191 195 192 200 210 203 206 218 215 217 215 207 223 247 252 243 246 244 238 242 249 250
195 198 197 195 197 200 197 195 196 192 191 194 195 196 195 194 194 195 197 193 193 196 190 202 220 208 202 217 218 218 218 211 228 250 249 239 244 248 245 246 254 259
195 198 200 198 199 203 201 199 199 195 194 194 195 198 196 196 196 198 203 197 191 201 199 203 223 216 201 213 221 223 221 211 222 243 247 240 244 251 253 251 257 264
196 197 200 202 203 205 204 204 203 200 200 198 198 199 197 199 196 196 211 209 196 207 211 206 218 220 207 214 224 229 229 222 220 228 235 237 237 241 246 246 250 256
198 199 200 202 205 206 206 207 206 205 205 202 202 202 199 201 200 196 212 218 204 209 217 209 212 217 212 214 223 230 232 230 233 234 236 240 240 240 242 244 247 252
197 200 202 202 204 206 207 208 208 209 210 207 205 205 202 203 205 201 210 217 207 206 215 216 214 216 217 215 216 226 232 229 233 238 239 241 244 246 248 251 253 256
199 200 203 204 206 207 207 208 209 210 212 212 209 210 208 206 206 205 208 214 211 207 212 222 222 217 221 221 214 218 230 232 233 237 239 241 245 247 249 251 252 254
200 199 202 204 206 207 208 209 211 211 213 214 214 215 215 214 214 213 212 214 216 214 213 223 230 224 224 229 225 221 226 231 235 237 237 241 245 247 250 251 252 252
203 201 202 204 204 205 206 208 209 211 213 215 215 216 217 219 219 219 220 219 221 221 219 223 229 229 228 231 231 228 229 232 237 240 242 244 247 249 251 253 255 256
209 210 210 210 210 210 211 210 209 211 214 216 218 217 217 219 220 221 223 224 224 225 225 227 228 230 232 234 233 230 229 230 235 240 243 244 247 250 252 254 256 259
213 217 217 217 218 219 219 217 214 213 214 215 218 219 219 220 220 221 222 224 227 227 228 232 233 231 232 237 240 239 232 228 232 239 244 247 249 251 254 257 258 259
213 217 218 218 219 221 222 223 222 220 219 219 219 219 222 223 223 224 225 224 227 230 231 235 239 237 233 234 242 246 244 238 237 241 247 253 255 256 258 261 261 262
209 212 214 216 219 222 224 225 224 224 223 224 223 219 221 225 225 228 230 229 228 229 231 236 242 242 240 239 242 247 249 247 244 245 247 252 255 257 259 260 261 262
216 217 220 226 230 234 235 234 231 228 227 228 228 226 226 227 227 227 228 231 231 229 228 233 238 239 239 241 244 248 250 250 248 248 249 251 255 256 259 261 263 265
227 229 234 239 241 242 244 243 240 236 234 232 233 234 233 232 232 229 227 230 230 225 223 226 230 234 236 239 243 247 249 249 248 248 249 250 252 256 261 264 264 262
228 230 234 237 238 237 237 238 235 233 233 234 235 237 235 233 235 235 233 231 228 225 229 230 230 234 239 240 243 247 249 250 249 249 250 250 251 253 256 258 257 256
224 224 228 230 230 226 222 222 222 221 224 229 231 234 234 229 230 231 229 229 228 226 230 234 233 237 243 245 247 249 251 253 252 251 252 253 252 251 250 251 255 259
211 213 220 224 224 220 216 215 215 213 215 222 226 230 229 223 221 223 221 225 227 220 217 226 233 240 246 250 253 252 251 252 253 252 251 254 258 258 255 255 258 261
174 183 196 201 195 195 201 204 206 204 205 214 220 223 225 223 223 225 226 231 232 221 214 225 236 243 249 252 254 253 252 251 250 251 251 252 261 264 260 258 260 261
151 157 160 158 157 166 175 174 179 187 183 184 203 213 217 222 230 231 230 237 243 231 223 229 236 241 247 254 254 252 251 245 238 242 246 240 245 260 259 255 257 260